{"data":{"norad_id":53213,"epoch":"2026-09-19T23:07:52.656096Z","epoch_age_seconds":118452,"freshness":"FRESH","line1":"1 53213U 22084AA  26262.96380389  .00001915  00000+0  61672-4 0  9995","line2":"2 53213  97.2838 317.8332 0001824  95.3385 264.8066 15.33429769229136","mean_motion":15.33429769,"eccentricity":0.0001824,"inclination_deg":97.2838,"raan_deg":317.8332,"arg_perigee_deg":95.3385,"mean_anomaly_deg":264.8066,"bstar":6.1672e-5,"rev_number":22913,"period_min":93.907137393,"perigee_km":464.34019606364,"apogee_km":466.83678712297,"semimajor_km":6843.7254915933,"source":"CELESTRAK","updated_at":"2026-09-20T09:00:40.193406Z"}}